User: anonymous   Login
Location: Larrial
(48.2758°N, 4.5331°W)
Time: 22:47:54
(UTC+00:00)
Language:

RS-15 - Orbit

View from above orbital plane
View from above orbital plane
View from above satellite
View from above satellite

Ground track
Ground track

The orbit data is extracted from the following two-line orbital elements,

1 23439U 94085A   21335.61790390 -.00000037  00000-0  15882-3 0  9994
2 23439  64.8124 105.5934 0165209 306.3397  52.2372 11.27570415109182
Epoch (UTC): 01 December 2021 14:49:46
Eccentricity: 0.0165209
inclination: 64.8124°
perigee height: 1883 km
apogee height: 2161 km
right ascension of ascending node: 105.5934°
argument of perigee: 306.3397°
revolutions per day: 11.27570415
mean anomaly at epoch: 52.2372°
orbit number at epoch: 10918

The dashed part of the orbit path shows where the satellite is in the earth's shadow,  

DLR